User: anonymous   Login
Location: Caltech
(34.1382°N, 118.1253°W)
Time: 20:20:39
(UTC-07:00)
Language:

Cosmos 2251 Rocket - Orbit

View from above orbital plane
View from above orbital plane
View from above satellite
View from above satellite

Ground track
Ground track

The orbit data is extracted from the following two-line orbital elements,

1 22676U 93036B   15184.13099965  .00000036  00000-0  22469-4 0  9991
2 22676 074.0429 049.5083 0019805 252.0767 107.8225 14.33798779152856
Epoch (UTC): 03 July 2015 03:08:38
Eccentricity: 0.0019805
inclination: 74.0429°
perigee height: 765 km
apogee height: 793 km
right ascension of ascending node: 49.5083°
argument of perigee: 252.0767°
revolutions per day: 14.33798779
mean anomaly at epoch: 107.8225°
orbit number at epoch: 15285

The dashed part of the orbit path shows where the satellite is in the earth's shadow,  

DLR